OK5TVR-14 Weather Reports


Display with metric or nautical units.
time (UTC)temp
F
wind
direction
speed
MPH
gust
MPH
rain 1hr
in
rain 24hr
in
rain mn
in
humidity
%
barometer
mb
20260903080651 66 135 0.0 0.0 0.00 0.00 0.00 62 1016.4
20260903075151 66 135 0.0 0.0 0.00 0.00 0.00 64 1016.6
20260903073651 65 135 0.0 0.0 0.00 0.00 0.00 67 1016.8
20260903072151 64 135 0.0 0.0 0.00 0.00 0.00 69 1016.9
20260903070651 63 135 0.0 0.0 0.00 0.00 0.00 70 1016.9
20260903065151 63 135 0.0 0.0 0.00 0.00 0.00 71 1017.0
20260903063651 62 135 0.0 0.0 0.00 0.00 0.00 71 1017.0
20260903062151 62 135 0.0 0.0 0.00 0.00 0.00 72 1016.9
20260903060651 61 135 0.0 0.0 0.00 0.00 0.00 72 1017.0
20260903055151 61 135 0.0 0.0 0.00 0.00 0.00 73 1016.9
20260903053651 60 135 0.0 0.0 0.00 0.00 0.00 74 1016.9
20260903052151 60 135 0.0 0.0 0.00 0.00 0.00 74 1016.8
20260903050651 60 135 0.0 0.0 0.00 0.00 0.00 74 1016.8
20260903045151 60 135 0.0 0.0 0.00 0.00 0.00 74 1016.6
20260903043651 61 135 0.0 0.0 0.00 0.00 0.00 73 1016.6
20260903042151 61 135 0.0 0.0 0.00 0.00 0.00 74 1016.7
20260903040651 61 135 0.0 0.0 0.00 0.00 0.00 73 1016.6
20260903035151 61 135 0.0 0.0 0.00 0.00 0.00 73 1016.4
20260903033651 61 135 0.0 0.0 0.00 0.00 0.00 73 1016.3
20260903032151 61 135 0.0 0.0 0.00 0.00 0.00 73 1016.5
20260903030651 62 135 0.0 0.0 0.00 0.00 0.00 73 1016.4
20260903025151 62 135 0.0 0.0 0.00 0.00 0.00 73 1016.5
20260903023651 62 135 0.0 0.0 0.00 0.00 0.00 73 1016.4
20260903022151 62 135 0.0 0.0 0.00 0.00 0.00 72 1016.2
20260903020651 62 135 0.0 0.0 0.00 0.00 0.00 72 1016.3
20260903015151 62 135 0.0 0.0 0.00 0.00 0.00 72 1016.3
20260903013651 63 135 0.0 0.0 0.00 0.00 0.00 72 1016.2
20260903012151 63 135 0.0 0.0 0.00 0.00 0.00 72 1016.3
20260903010651 63 135 0.0 0.0 0.00 0.00 0.00 72 1016.2
20260903005151 63 135 0.0 0.0 0.00 0.00 0.00 71 1016.3
20260903003651 63 135 0.0 0.0 0.00 0.00 0.00 71 1016.4
20260903002151 63 135 0.0 0.0 0.00 0.00 0.00 71 1016.3
20260903000651 63 135 0.0 0.0 0.00 0.00 0.00 71 1016.3
20260902235151 63 135 0.0 0.0 0.00 0.00 0.00 70 1016.2
20260902233651 63 135 0.0 0.0 0.00 0.00 0.00 70 1016.3
20260902232151 63 135 0.0 0.0 0.00 0.00 0.00 70 1016.4
20260902230651 63 135 0.0 0.0 0.00 0.00 0.00 70 1016.3
20260902225151 63 135 0.0 0.0 0.00 0.00 0.00 69 1016.3
20260902223651 64 135 0.0 0.0 0.00 0.00 0.00 69 1016.3
20260902222151 64 135 0.0 0.0 0.00 0.00 0.00 69 1016.4
20260902220651 64 135 0.0 0.0 0.00 0.00 0.00 68 1016.3
20260902215151 64 135 0.0 0.0 0.00 0.00 0.00 68 1016.3
20260902213651 65 135 0.0 0.0 0.00 0.00 0.00 67 1016.2
20260902212151 65 135 0.0 0.0 0.00 0.00 0.00 67 1016.1
20260902210651 65 135 0.0 0.0 0.00 0.00 0.00 67 1016.0
20260902205151 66 135 0.0 0.0 0.00 0.00 0.00 66 1016.0
20260902203651 66 135 0.0 0.0 0.00 0.00 0.00 65 1015.9
20260902202151 66 135 0.0 0.0 0.00 0.00 0.00 65 1015.7
20260902200651 67 135 0.0 0.0 0.00 0.00 0.00 64 1015.5
20260902195151 68 135 0.0 0.0 0.00 0.00 0.00 64 1015.3
20260902193651 68 135 0.0 0.0 0.00 0.00 0.00 63 1015.4
20260902192151 69 135 0.0 0.0 0.00 0.00 0.00 62 1015.2
20260902190651 69 135 0.0 0.0 0.00 0.00 0.00 61 1015.2
20260902185151 70 135 0.0 0.0 0.00 0.00 0.00 59 1015.0
20260902183651 71 135 0.0 0.0 0.00 0.00 0.00 56 1015.5
20260902182151 72 135 0.0 0.0 0.00 0.00 0.00 55 1014.6
20260902180651 72 135 0.0 0.0 0.00 0.00 0.00 53 1014.3
20260902175151 73 135 0.0 0.0 0.00 0.00 0.00 52 1014.1
20260902173651 73 135 0.0 0.0 0.00 0.00 0.00 50 1014.1
20260902172151 74 135 0.0 0.0 0.00 0.00 0.00 47 1014.0
20260902170651 75 135 0.0 0.0 0.00 0.00 0.00 46 1013.9
20260902165151 75 135 0.0 0.0 0.00 0.00 0.00 45 1013.9
20260902163651 76 135 0.0 0.0 0.00 0.00 0.00 45 1014.0
20260902162151 76 135 0.0 0.0 0.00 0.00 0.00 45 1013.9
20260902160651 76 135 0.0 0.0 0.00 0.00 0.00 44 1013.9
20260902155151 77 135 0.0 0.0 0.00 0.00 0.00 43 1013.8
20260902153651 78 135 0.0 0.0 0.00 0.00 0.00 42 1013.7
20260902152151 77 135 0.0 0.0 0.00 0.00 0.00 41 1013.8
20260902150651 76 135 0.0 0.0 0.00 0.00 0.00 40 1014.0
20260902145151 78 135 0.0 0.0 0.00 0.00 0.00 40 1013.8
20260902143651 81 135 0.0 0.0 0.00 0.00 0.00 37 1013.7
20260902142151 83 135 0.0 0.0 0.00 0.00 0.00 36 1013.7
20260902140651 84 135 0.0 0.0 0.00 0.00 0.00 38 1013.7
20260902135151 84 135 0.0 0.0 0.00 0.00 0.00 37 1013.7
20260902133651 83 135 0.0 0.0 0.00 0.00 0.00 37 1013.9
20260902132151 82 135 0.0 0.0 0.00 0.00 0.00 39 1014.0
20260902130651 81 135 0.0 0.0 0.00 0.00 0.00 39 1014.1
20260902125151 80 135 0.0 0.0 0.00 0.00 0.00 41 1014.5
20260902123651 78 135 0.0 0.0 0.00 0.00 0.00 43 1014.8
20260902122151 76 135 0.0 0.0 0.00 0.00 0.00 48 1015.1
20260902120651 75 135 0.0 0.0 0.00 0.00 0.00 48 1015.2
20260902115151 75 135 0.0 0.0 0.00 0.00 0.00 49 1015.3
20260902113651 76 135 0.0 0.0 0.00 0.00 0.00 49 1015.2
20260902112151 77 135 0.0 0.0 0.00 0.00 0.00 48 1015.2
20260902110651 76 135 0.0 0.0 0.00 0.00 0.00 51 1015.5
20260902105151 76 135 0.0 0.0 0.00 0.00 0.00 51 1015.6
20260902103651 75 135 0.0 0.0 0.00 0.00 0.00 51 1015.9
20260902102151 72 135 0.0 0.0 0.00 0.00 0.00 55 1016.2
20260902100651 73 135 0.0 0.0 0.00 0.00 0.00 54 1016.3
20260902095151 72 135 0.0 0.0 0.00 0.00 0.00 55 1016.6
20260902093651 71 135 0.0 0.0 0.00 0.00 0.00 56 1016.5
20260902092151 70 135 0.0 0.0 0.00 0.00 0.00 58 1016.8
20260902090651 69 135 0.0 0.0 0.00 0.00 0.00 60 1017.0
20260902085151 68 135 0.0 0.0 0.00 0.00 0.00 61 1017.1
20260902083651 67 135 0.0 0.0 0.00 0.00 0.00 61 1017.2
20260902082151 66 135 0.0 0.0 0.00 0.00 0.00 63 1017.1